Index of /20260505/WXO-DD/model_gdps/15km/00/080
Name Last modified Size Description
Parent Directory -
20260505T00Z_MSC_GDPS_AirTemp_AGL-120m_LatLon0.15_PT080H.grib2 2026-05-05 04:01 905K
20260505T00Z_MSC_GDPS_AirTemp_AGL-2m_LatLon0.15_PT080H.grib2 2026-05-05 04:01 1.0M
20260505T00Z_MSC_GDPS_AirTemp_AGL-40m_LatLon0.15_PT080H.grib2 2026-05-05 04:01 807K
20260505T00Z_MSC_GDPS_AirTemp_AGL-80m_LatLon0.15_PT080H.grib2 2026-05-05 04:01 914K
20260505T00Z_MSC_GDPS_Albedo_Sfc_LatLon0.15_PT080H.grib2 2026-05-05 04:01 243K
20260505T00Z_MSC_GDPS_ConvectivePrecip-Accum_Sfc_LatLon0.15_PT080H.grib2 2026-05-05 04:01 3.1M
20260505T00Z_MSC_GDPS_DewPointDepression_AGL-2m_LatLon0.15_PT080H.grib2 2026-05-05 04:01 762K
20260505T00Z_MSC_GDPS_DewPoint_AGL-2m_LatLon0.15_PT080H.grib2 2026-05-05 04:01 612K
20260505T00Z_MSC_GDPS_DownwardLongwaveRadiationFlux-Accum_Sfc_LatLon0.15_PT080H.grib2 2026-05-05 04:01 688K
20260505T00Z_MSC_GDPS_DownwardShortwaveRadiationFlux-Accum_Sfc_LatLon0.15_PT080H.grib2 2026-05-05 04:01 895K
20260505T00Z_MSC_GDPS_FreezingRain-Accum1h_Sfc_LatLon0.15_PT080H.grib2 2026-05-05 04:01 41K
20260505T00Z_MSC_GDPS_FreezingRain-Accum_Sfc_LatLon0.15_PT080H.grib2 2026-05-05 04:01 318K
20260505T00Z_MSC_GDPS_IcePellets-Accum1h_Sfc_LatLon0.15_PT080H.grib2 2026-05-05 04:01 14K
20260505T00Z_MSC_GDPS_IcePellets-Accum_Sfc_LatLon0.15_PT080H.grib2 2026-05-05 04:01 97K
20260505T00Z_MSC_GDPS_LatentHeatNetFlux_Sfc_LatLon0.15_PT080H.grib2 2026-05-05 04:01 557K
20260505T00Z_MSC_GDPS_NetLongwaveRadiationFlux-Accum_Sfc_LatLon0.15_PT080H.grib2 2026-05-05 04:01 918K
20260505T00Z_MSC_GDPS_NetShortwaveRadiationFlux-Accum_Sfc_LatLon0.15_PT080H.grib2 2026-05-05 04:01 878K
20260505T00Z_MSC_GDPS_O3MixingRatio_Sfc_LatLon0.15_PT080H.grib2 2026-05-05 04:46 1.9M
20260505T00Z_MSC_GDPS_O3_EAtm_LatLon0.15_PT080H.grib2 2026-05-05 04:46 2.4M
20260505T00Z_MSC_GDPS_PlanetaryBoundaryLayerHeight_Sfc_LatLon0.15_PT080H.grib2 2026-05-05 04:01 2.5M
20260505T00Z_MSC_GDPS_Precip-Accum1h_Sfc_LatLon0.15_PT080H.grib2 2026-05-05 04:01 3.3M
20260505T00Z_MSC_GDPS_Precip-Accum_Sfc_LatLon0.15_PT080H.grib2 2026-05-05 04:01 4.9M
20260505T00Z_MSC_GDPS_PrecipRate_Sfc_LatLon0.15_PT080H.grib2 2026-05-05 04:01 2.9M
20260505T00Z_MSC_GDPS_Pressure_MSL_LatLon0.15_PT080H.grib2 2026-05-05 04:01 718K
20260505T00Z_MSC_GDPS_Pressure_Sfc_LatLon0.15_PT080H.grib2 2026-05-05 04:01 1.1M
20260505T00Z_MSC_GDPS_RadiativeTemp_Sfc_LatLon0.15_PT080H.grib2 2026-05-05 04:01 502K
20260505T00Z_MSC_GDPS_Rain-Accum1h_Sfc_LatLon0.15_PT080H.grib2 2026-05-05 04:01 1.5M
20260505T00Z_MSC_GDPS_Rain-Accum_Sfc_LatLon0.15_PT080H.grib2 2026-05-05 04:01 3.8M
20260505T00Z_MSC_GDPS_RelativeHumidity_AGL-2m_LatLon0.15_PT080H.grib2 2026-05-05 04:01 1.0M
20260505T00Z_MSC_GDPS_Runoff-Accum_Sfc_LatLon0.15_PT080H.grib2 2026-05-05 04:01 117K
20260505T00Z_MSC_GDPS_SensibleHeatNetFlux_Sfc_LatLon0.15_PT080H.grib2 2026-05-05 04:01 499K
20260505T00Z_MSC_GDPS_Snow-Accum1h_Sfc_LatLon0.15_PT080H.grib2 2026-05-05 04:01 1.0M
20260505T00Z_MSC_GDPS_Snow-Accum_Sfc_LatLon0.15_PT080H.grib2 2026-05-05 04:01 2.0M
20260505T00Z_MSC_GDPS_SnowDepth_Sfc_LatLon0.15_PT080H.grib2 2026-05-05 04:01 1.7M
20260505T00Z_MSC_GDPS_SoilTemp_DBS-0to10cm_LatLon0.15_PT080H.grib2 2026-05-05 04:01 511K
20260505T00Z_MSC_GDPS_SoilTemp_Sfc_LatLon0.15_PT080H.grib2 2026-05-05 04:01 590K
20260505T00Z_MSC_GDPS_SoilVolumetricWaterContent_DBS-0to10cm_LatLon0.15_PT080H.grib2 2026-05-05 04:01 597K
20260505T00Z_MSC_GDPS_SoilVolumetricWaterContent_DBS-0to1cm_LatLon0.15_PT080H.grib2 2026-05-05 04:01 656K
20260505T00Z_MSC_GDPS_SpecificHumidity_AGL-120m_LatLon0.15_PT080H.grib2 2026-05-05 04:01 1.1M
20260505T00Z_MSC_GDPS_SpecificHumidity_AGL-2m_LatLon0.15_PT080H.grib2 2026-05-05 04:01 1.2M
20260505T00Z_MSC_GDPS_SpecificHumidity_AGL-40m_LatLon0.15_PT080H.grib2 2026-05-05 04:01 1.1M
20260505T00Z_MSC_GDPS_SpecificHumidity_AGL-80m_LatLon0.15_PT080H.grib2 2026-05-05 04:01 1.1M
20260505T00Z_MSC_GDPS_SpecificHumidity_Sfc_LatLon0.15_PT080H.grib2 2026-05-05 04:01 683K
20260505T00Z_MSC_GDPS_TotalCloudCover_Sfc_LatLon0.15_PT080H.grib2 2026-05-05 04:01 822K
20260505T00Z_MSC_GDPS_UVIndex-ClearSky_Sfc_LatLon0.15_PT080H.grib2 2026-05-05 04:46 1.1M
20260505T00Z_MSC_GDPS_UVIndex_Sfc_LatLon0.15_PT080H.grib2 2026-05-05 04:46 1.5M
20260505T00Z_MSC_GDPS_UpwardLongwaveRadiationFlux_NTAtm_LatLon0.15_PT080H.grib2 2026-05-05 04:01 834K
20260505T00Z_MSC_GDPS_WindDir_AGL-10m_LatLon0.15_PT080H.grib2 2026-05-05 04:01 1.3M
20260505T00Z_MSC_GDPS_WindDir_AGL-120m_LatLon0.15_PT080H.grib2 2026-05-05 04:01 1.3M
20260505T00Z_MSC_GDPS_WindDir_AGL-40m_LatLon0.15_PT080H.grib2 2026-05-05 04:01 1.4M
20260505T00Z_MSC_GDPS_WindDir_AGL-80m_LatLon0.15_PT080H.grib2 2026-05-05 04:01 1.3M
20260505T00Z_MSC_GDPS_WindDir_IsbL-0700_LatLon0.15_PT080H.grib2 2026-05-05 04:01 1.6M
20260505T00Z_MSC_GDPS_WindGust-Max_AGL-10m_LatLon0.15_PT080H.grib2 2026-05-05 04:01 2.2M
20260505T00Z_MSC_GDPS_WindGust-Min_AGL-10m_LatLon0.15_PT080H.grib2 2026-05-05 04:01 2.2M
20260505T00Z_MSC_GDPS_WindGust_AGL-10m_LatLon0.15_PT080H.grib2 2026-05-05 04:01 2.1M
20260505T00Z_MSC_GDPS_WindSpeed_AGL-10m_LatLon0.15_PT080H.grib2 2026-05-05 04:01 1.1M
20260505T00Z_MSC_GDPS_WindSpeed_AGL-120m_LatLon0.15_PT080H.grib2 2026-05-05 04:01 1.2M
20260505T00Z_MSC_GDPS_WindSpeed_AGL-40m_LatLon0.15_PT080H.grib2 2026-05-05 04:01 1.2M
20260505T00Z_MSC_GDPS_WindSpeed_AGL-80m_LatLon0.15_PT080H.grib2 2026-05-05 04:01 1.2M
20260505T00Z_MSC_GDPS_WindSpeed_IsbL-0700_LatLon0.15_PT080H.grib2 2026-05-05 04:01 1.5M
20260505T00Z_MSC_GDPS_WindU_AGL-10m_LatLon0.15_PT080H.grib2 2026-05-05 04:01 1.5M
20260505T00Z_MSC_GDPS_WindU_AGL-120m_LatLon0.15_PT080H.grib2 2026-05-05 04:01 954K
20260505T00Z_MSC_GDPS_WindU_AGL-40m_LatLon0.15_PT080H.grib2 2026-05-05 04:01 951K
20260505T00Z_MSC_GDPS_WindU_AGL-80m_LatLon0.15_PT080H.grib2 2026-05-05 04:01 954K
20260505T00Z_MSC_GDPS_WindU_IsbL-0700_LatLon0.15_PT080H.grib2 2026-05-05 04:01 1.2M
20260505T00Z_MSC_GDPS_WindV_AGL-10m_LatLon0.15_PT080H.grib2 2026-05-05 04:01 1.3M
20260505T00Z_MSC_GDPS_WindV_AGL-120m_LatLon0.15_PT080H.grib2 2026-05-05 04:01 955K
20260505T00Z_MSC_GDPS_WindV_AGL-40m_LatLon0.15_PT080H.grib2 2026-05-05 04:01 950K
20260505T00Z_MSC_GDPS_WindV_AGL-80m_LatLon0.15_PT080H.grib2 2026-05-05 04:01 955K
20260505T00Z_MSC_GDPS_WindV_IsbL-0700_LatLon0.15_PT080H.grib2 2026-05-05 04:01 1.2M